LNI366 WARR-WALL

Flight info

Callsign LNI366
Flight time 1h 13m
Altitude 33000
Route RAMPY T13 IKAPI T11 KAYAN
Aircraft B739/M-SDE2E3FGHIRWXY/LB1

Departure

Time 2026-05-08 13:35
Airport Juanda International Airport (WARR)

Arrival

Time 2026-05-08 14:48
Airport Sultan Aji Muhammad Sulaiman Sepinggan International Airport (WALL)
Time Latitude Longitude Altitude Speed Heading
2026-05-08 13:01 -7.37604 112.79533 8 ft 0 kts
2026-05-08 13:17 -7.37626 112.79531 -19 ft 4 kts 354°
2026-05-08 13:17 -7.37652 112.79537 8 ft 4 kts 336°
2026-05-08 13:17 -7.37675 112.79551 12 ft 4 kts 319°
2026-05-08 13:18 -7.37693 112.79570 10 ft 4 kts 299°
2026-05-08 13:18 -7.37700 112.79588 9 ft 0 kts 279°
2026-05-08 13:24 -7.37700 112.79587 8 ft 1 kts 279°
2026-05-08 13:24 -7.37697 112.79567 8 ft 5 kts 279°
2026-05-08 13:25 -7.37689 112.79518 8 ft 9 kts 279°
2026-05-08 13:25 -7.37692 112.79459 9 ft 7 kts 233°
2026-05-08 13:25 -7.37737 112.79443 8 ft 7 kts 189°
2026-05-08 13:25 -7.37785 112.79435 8 ft 7 kts 189°
2026-05-08 13:26 -7.37843 112.79426 8 ft 10 kts 189°
2026-05-08 13:26 -7.37892 112.79417 8 ft 5 kts 189°
2026-05-08 13:26 -7.37903 112.79415 9 ft 2 kts 204°
2026-05-08 13:26 -7.37917 112.79390 8 ft 7 kts 256°
2026-05-08 13:27 -7.37908 112.79313 8 ft 16 kts 279°
2026-05-08 13:27 -7.37885 112.79169 8 ft 24 kts 279°
2026-05-08 13:27 -7.37859 112.79008 8 ft 23 kts 279°
2026-05-08 13:27 -7.37834 112.78847 8 ft 25 kts 279°
2026-05-08 13:28 -7.37804 112.78668 8 ft 26 kts 279°
2026-05-08 13:28 -7.37777 112.78502 8 ft 23 kts 278°
2026-05-08 13:28 -7.37752 112.78346 8 ft 22 kts 279°
2026-05-08 13:28 -7.37728 112.78192 8 ft 22 kts 279°
2026-05-08 13:29 -7.37703 112.78044 8 ft 21 kts 279°
2026-05-08 13:29 -7.37680 112.77899 8 ft 21 kts 279°
2026-05-08 13:29 -7.37657 112.77759 8 ft 20 kts 279°
2026-05-08 13:29 -7.37636 112.77625 8 ft 19 kts 279°
2026-05-08 13:30 -7.37615 112.77494 8 ft 19 kts 279°
2026-05-08 13:30 -7.37619 112.77405 10 ft 11 kts 236°
2026-05-08 13:30 -7.37661 112.77384 7 ft 0 kts 193°
2026-05-08 13:31 -7.37672 112.77381 7 ft 0 kts 192°
2026-05-08 13:31 -7.37678 112.77380 7 ft 2 kts 192°
2026-05-08 13:31 -7.37704 112.77375 8 ft 6 kts 189°
2026-05-08 13:31 -7.37749 112.77368 8 ft 2 kts 188°
2026-05-08 13:32 -7.37761 112.77373 8 ft 2 kts 134°
2026-05-08 13:32 -7.37771 112.77389 9 ft 3 kts 117°
2026-05-08 13:32 -7.37777 112.77415 8 ft 0 kts 99°
2026-05-08 13:32 -7.37778 112.77419 8 ft 0 kts 100°
2026-05-08 13:34 -7.37784 112.77454 8 ft 19 kts 99°
2026-05-08 13:34 -7.37845 112.77834 8 ft 89 kts 99°
2026-05-08 13:34 -7.37978 112.78659 9 ft 146 kts 99°
2026-05-08 13:34 -7.38171 112.79807 166 ft 177 kts 99°
2026-05-08 13:35 -7.38384 112.80991 885 ft 173 kts 101°
2026-05-08 13:35 -7.38537 112.81784 1292 ft 176 kts 100°
2026-05-08 13:35 -7.38734 112.83084 1580 ft 199 kts 98°
2026-05-08 13:35 -7.39019 112.85043 1876 ft 226 kts 98°
2026-05-08 13:36 -7.39076 112.86128 2145 ft 233 kts 81°
2026-05-08 13:36 -7.38338 112.87586 2553 ft 251 kts 46°
2026-05-08 13:36 -7.36791 112.88534 2984 ft 267 kts 25°
2026-05-08 13:36 -7.35057 112.89257 3659 ft 273 kts 23°
2026-05-08 13:37 -7.33287 112.89967 4427 ft 274 kts 22°
2026-05-08 13:37 -7.31500 112.90681 5171 ft 277 kts 22°
2026-05-08 13:37 -7.29697 112.91406 5871 ft 280 kts 22°
2026-05-08 13:37 -7.27897 112.92134 6570 ft 283 kts 22°
2026-05-08 13:38 -7.26056 112.92884 7260 ft 285 kts 22°
2026-05-08 13:38 -7.24214 112.93638 7952 ft 287 kts 23°
2026-05-08 13:38 -7.22354 112.94403 8629 ft 290 kts 23°
2026-05-08 13:38 -7.20477 112.95176 9295 ft 293 kts 23°
2026-05-08 13:39 -7.18604 112.95948 9950 ft 295 kts 23°
2026-05-08 13:39 -7.16671 112.96747 10368 ft 308 kts 23°
2026-05-08 13:39 -7.14622 112.97595 10501 ft 328 kts 23°
2026-05-08 13:39 -7.12440 112.98497 10652 ft 347 kts 23°
2026-05-08 13:40 -7.10155 112.99442 10868 ft 361 kts 23°
2026-05-08 13:40 -7.07809 113.00412 11347 ft 366 kts 23°
2026-05-08 13:40 -7.05448 113.01388 11892 ft 368 kts 23°
2026-05-08 13:40 -7.03066 113.02372 12435 ft 371 kts 23°
2026-05-08 13:41 -7.00661 113.03366 12954 ft 374 kts 23°
2026-05-08 13:41 -6.98234 113.04369 13455 ft 378 kts 23°
2026-05-08 13:41 -6.95808 113.05372 13885 ft 382 kts 23°
2026-05-08 13:41 -6.93335 113.06394 14346 ft 384 kts 23°
2026-05-08 13:42 -6.90873 113.07411 14786 ft 387 kts 23°
2026-05-08 13:42 -6.88358 113.08451 15194 ft 391 kts 23°
2026-05-08 13:42 -6.85820 113.09500 15597 ft 395 kts 23°
2026-05-08 13:42 -6.83266 113.10555 16020 ft 397 kts 23°
2026-05-08 13:43 -6.80726 113.11604 16448 ft 400 kts 23°
2026-05-08 13:43 -6.78137 113.12674 16845 ft 403 kts 23°
2026-05-08 13:43 -6.75532 113.13750 17201 ft 407 kts 24°
2026-05-08 13:43 -6.72894 113.14840 17610 ft 409 kts 24°
2026-05-08 13:44 -6.70245 113.15933 17996 ft 412 kts 24°
2026-05-08 13:44 -6.67583 113.17032 18345 ft 415 kts 24°
2026-05-08 13:44 -6.64932 113.18127 18690 ft 416 kts 24°
2026-05-08 13:44 -6.62245 113.19236 19058 ft 418 kts 24°
2026-05-08 13:45 -6.59545 113.20350 19368 ft 420 kts 24°
2026-05-08 13:45 -6.56833 113.21470 19704 ft 422 kts 24°
2026-05-08 13:45 -6.54100 113.22598 20047 ft 424 kts 24°
2026-05-08 13:45 -6.51371 113.23724 20446 ft 423 kts 24°
2026-05-08 13:46 -6.48666 113.24840 20705 ft 427 kts 24°
2026-05-08 13:46 -6.45907 113.25978 21044 ft 428 kts 23°
2026-05-08 13:46 -6.43160 113.27111 21489 ft 426 kts 23°
2026-05-08 13:46 -6.40398 113.28250 21737 ft 430 kts 23°
2026-05-08 13:47 -6.37613 113.29398 22040 ft 431 kts 23°
2026-05-08 13:47 -6.34838 113.30542 22408 ft 431 kts 23°
2026-05-08 13:47 -6.32089 113.31676 22727 ft 432 kts 22°
2026-05-08 13:47 -6.29291 113.32830 23018 ft 434 kts 22°
2026-05-08 13:48 -6.26495 113.33982 23301 ft 435 kts 22°
2026-05-08 13:48 -6.23700 113.35174 23581 ft 436 kts 24°
2026-05-08 13:48 -6.20945 113.36468 23807 ft 437 kts 26°
2026-05-08 13:48 -6.18197 113.37821 24020 ft 439 kts 26°
2026-05-08 13:49 -6.15494 113.39170 24225 ft 441 kts 26°
2026-05-08 13:49 -6.12732 113.40549 24428 ft 442 kts 26°
2026-05-08 13:49 -6.09968 113.41922 24643 ft 444 kts 26°
2026-05-08 13:49 -6.07187 113.43293 24850 ft 445 kts 26°
2026-05-08 13:50 -6.04394 113.44665 25060 ft 447 kts 26°
2026-05-08 13:50 -6.01595 113.46034 25258 ft 448 kts 26°
2026-05-08 13:50 -5.98817 113.47392 25452 ft 449 kts 26°
2026-05-08 13:50 -5.95993 113.48770 25653 ft 450 kts 26°
2026-05-08 13:51 -5.93170 113.50148 25839 ft 452 kts 26°
2026-05-08 13:51 -5.90357 113.51520 26024 ft 453 kts 26°
2026-05-08 13:51 -5.87481 113.52923 26209 ft 455 kts 26°
2026-05-08 13:51 -5.84666 113.54298 26389 ft 456 kts 26°
2026-05-08 13:52 -5.81802 113.55695 26571 ft 457 kts 26°
2026-05-08 13:52 -5.78934 113.57095 26741 ft 458 kts 26°
2026-05-08 13:52 -5.76053 113.58501 26916 ft 460 kts 26°
2026-05-08 13:52 -5.73172 113.59906 27084 ft 461 kts 26°
2026-05-08 13:53 -5.70312 113.61302 27248 ft 462 kts 26°
2026-05-08 13:53 -5.67412 113.62716 27420 ft 463 kts 26°
2026-05-08 13:53 -5.64507 113.64133 27582 ft 464 kts 26°
2026-05-08 13:53 -5.61598 113.65551 27739 ft 465 kts 26°
2026-05-08 13:54 -5.58668 113.66980 27899 ft 466 kts 26°
2026-05-08 13:54 -5.55750 113.68403 28043 ft 467 kts 26°
2026-05-08 13:54 -5.52854 113.69815 28207 ft 468 kts 26°
2026-05-08 13:54 -5.49912 113.71249 28361 ft 469 kts 26°
2026-05-08 13:55 -5.46969 113.72683 28514 ft 470 kts 26°
2026-05-08 13:55 -5.44017 113.74122 28651 ft 471 kts 26°
2026-05-08 13:55 -5.38131 113.76990 28925 ft 473 kts 26°
2026-05-08 13:56 -5.35159 113.78438 29048 ft 474 kts 26°
2026-05-08 13:56 -5.32181 113.79889 29168 ft 475 kts 26°
2026-05-08 13:56 -5.29239 113.81322 29308 ft 476 kts 26°
2026-05-08 13:56 -5.26251 113.82777 29435 ft 477 kts 26°
2026-05-08 13:57 -5.23259 113.84234 29575 ft 478 kts 26°
2026-05-08 13:57 -5.20265 113.85692 29767 ft 477 kts 26°
2026-05-08 13:57 -5.17277 113.87147 29970 ft 476 kts 26°
2026-05-08 13:57 -5.14287 113.88603 30134 ft 476 kts 26°
2026-05-08 13:58 -5.11340 113.90038 30278 ft 476 kts 26°
2026-05-08 13:58 -5.08348 113.91494 30436 ft 476 kts 26°
2026-05-08 13:58 -5.05359 113.92949 30606 ft 476 kts 26°
2026-05-08 13:58 -5.02384 113.94397 30779 ft 475 kts 26°
2026-05-08 13:59 -4.99406 113.95847 30948 ft 475 kts 26°
2026-05-08 13:59 -4.96458 113.97283 31133 ft 475 kts 27°
2026-05-08 13:59 -4.93568 113.98895 31311 ft 474 kts 32°
2026-05-08 13:59 -4.90789 114.00690 31502 ft 474 kts 34°
2026-05-08 14:00 -4.88043 114.02541 31691 ft 474 kts 34°
2026-05-08 14:00 -4.85350 114.04379 31886 ft 473 kts 34°
2026-05-08 14:00 -4.82620 114.06238 32082 ft 473 kts 34°
2026-05-08 14:00 -4.79881 114.08088 32301 ft 473 kts 34°
2026-05-08 14:01 -4.77147 114.09921 32504 ft 472 kts 34°
2026-05-08 14:01 -4.74404 114.11748 32700 ft 472 kts 34°
2026-05-08 14:01 -4.71701 114.13542 32889 ft 470 kts 34°
2026-05-08 14:02 -4.66219 114.17170 32901 ft 472 kts 34°
2026-05-08 14:02 -4.60717 114.20812 32901 ft 473 kts 34°
2026-05-08 14:03 -4.55241 114.24437 32907 ft 475 kts 34°
2026-05-08 14:03 -4.49707 114.28102 32899 ft 475 kts 34°
2026-05-08 14:04 -4.44186 114.31756 32896 ft 475 kts 34°
2026-05-08 14:04 -4.38693 114.35392 32902 ft 474 kts 34°
2026-05-08 14:05 -4.33184 114.39038 32901 ft 474 kts 34°
2026-05-08 14:05 -4.27681 114.42679 32896 ft 473 kts 34°
2026-05-08 14:06 -4.22225 114.46288 32899 ft 472 kts 34°
2026-05-08 14:06 -4.16738 114.49917 32900 ft 471 kts 34°
2026-05-08 14:07 -4.11298 114.53515 32900 ft 470 kts 34°
2026-05-08 14:07 -4.05828 114.57131 32900 ft 470 kts 34°
2026-05-08 14:08 -4.00389 114.60728 32898 ft 470 kts 34°
2026-05-08 14:08 -3.94921 114.64342 32897 ft 470 kts 34°
2026-05-08 14:09 -3.89474 114.67942 32897 ft 470 kts 34°
2026-05-08 14:09 -3.83999 114.71560 32894 ft 471 kts 34°
2026-05-08 14:10 -3.78539 114.75167 32893 ft 472 kts 34°
2026-05-08 14:10 -3.73050 114.78792 32880 ft 472 kts 34°
2026-05-08 14:11 -3.67556 114.82421 32873 ft 472 kts 34°
2026-05-08 14:11 -3.62091 114.86030 32871 ft 473 kts 34°
2026-05-08 14:12 -3.56591 114.89661 32865 ft 473 kts 34°
2026-05-08 14:12 -3.51089 114.93294 32870 ft 472 kts 34°
2026-05-08 14:13 -3.45628 114.96899 32866 ft 472 kts 34°
2026-05-08 14:13 -3.40133 115.00525 32864 ft 471 kts 34°
2026-05-08 14:14 -3.34651 115.04143 32874 ft 471 kts 34°
2026-05-08 14:14 -3.29208 115.07734 32874 ft 470 kts 34°
2026-05-08 14:15 -3.23739 115.11343 32884 ft 470 kts 34°
2026-05-08 14:15 -3.18281 115.14943 32879 ft 469 kts 34°
2026-05-08 14:16 -3.12851 115.18524 32884 ft 469 kts 34°
2026-05-08 14:16 -3.07404 115.22116 32884 ft 468 kts 34°
2026-05-08 14:17 -3.01956 115.25709 32880 ft 468 kts 34°
2026-05-08 14:17 -2.96546 115.29275 32892 ft 468 kts 34°
2026-05-08 14:18 -2.91094 115.32869 32891 ft 468 kts 34°
2026-05-08 14:18 -2.85686 115.36434 32895 ft 468 kts 34°
2026-05-08 14:19 -2.80237 115.40026 32899 ft 468 kts 34°
2026-05-08 14:19 -2.74782 115.43620 32900 ft 469 kts 34°
2026-05-08 14:20 -2.69366 115.47189 32900 ft 469 kts 34°
2026-05-08 14:20 -2.63907 115.50787 32904 ft 469 kts 34°
2026-05-08 14:21 -2.58450 115.54382 32901 ft 470 kts 34°
2026-05-08 14:21 -2.53017 115.57961 32900 ft 470 kts 34°
2026-05-08 14:22 -2.47550 115.61562 32901 ft 470 kts 34°
2026-05-08 14:22 -2.43005 115.64555 32898 ft 463 kts 34°
2026-05-08 14:23 -2.37676 115.68065 32900 ft 460 kts 34°
2026-05-08 14:23 -2.34998 115.69829 32571 ft 464 kts 34°
2026-05-08 14:23 -2.32308 115.71601 32134 ft 461 kts 34°
2026-05-08 14:23 -2.29638 115.73359 31601 ft 457 kts 34°
2026-05-08 14:24 -2.26994 115.75100 31100 ft 453 kts 34°
2026-05-08 14:24 -2.24364 115.76831 30584 ft 450 kts 34°
2026-05-08 14:24 -2.21939 115.78739 30038 ft 447 kts 46°
2026-05-08 14:24 -2.19810 115.80991 29484 ft 443 kts 48°
2026-05-08 14:25 -2.17757 115.83284 28922 ft 440 kts 49°
2026-05-08 14:25 -2.15733 115.85566 28394 ft 436 kts 49°
2026-05-08 14:25 -2.13747 115.87788 27887 ft 432 kts 48°
2026-05-08 14:25 -2.11734 115.90012 27387 ft 428 kts 48°
2026-05-08 14:26 -2.09728 115.92208 26888 ft 425 kts 48°
2026-05-08 14:26 -2.07732 115.94380 26394 ft 422 kts 47°
2026-05-08 14:26 -2.05750 115.96529 25934 ft 418 kts 47°
2026-05-08 14:26 -2.03777 115.98667 25382 ft 417 kts 47°
2026-05-08 14:27 -2.01843 116.00764 24917 ft 414 kts 47°
2026-05-08 14:27 -1.99892 116.02878 24419 ft 413 kts 48°
2026-05-08 14:27 -1.97942 116.04992 23932 ft 411 kts 48°
2026-05-08 14:27 -1.96005 116.07094 23436 ft 410 kts 48°
2026-05-08 14:28 -1.94074 116.09188 22873 ft 408 kts 48°
2026-05-08 14:28 -1.92162 116.11262 22373 ft 404 kts 48°
2026-05-08 14:28 -1.90279 116.13305 21888 ft 401 kts 48°
2026-05-08 14:28 -1.88395 116.15347 21412 ft 398 kts 48°
2026-05-08 14:29 -1.86525 116.17375 20941 ft 395 kts 48°
2026-05-08 14:29 -1.84668 116.19391 20474 ft 392 kts 48°
2026-05-08 14:29 -1.82823 116.21396 20014 ft 390 kts 48°
2026-05-08 14:29 -1.80997 116.23380 19619 ft 385 kts 48°
2026-05-08 14:30 -1.79171 116.25364 19077 ft 386 kts 48°
2026-05-08 14:30 -1.77376 116.27316 18600 ft 385 kts 48°
2026-05-08 14:30 -1.75567 116.29282 18129 ft 383 kts 48°
2026-05-08 14:30 -1.73760 116.31247 17610 ft 381 kts 48°
2026-05-08 14:31 -1.71965 116.33196 17137 ft 378 kts 48°
2026-05-08 14:31 -1.70191 116.35126 16758 ft 373 kts 48°
2026-05-08 14:31 -1.68458 116.37020 16472 ft 365 kts 48°
2026-05-08 14:32 -1.65112 116.40686 15944 ft 353 kts 48°
2026-05-08 14:32 -1.63465 116.42491 15692 ft 350 kts 48°
2026-05-08 14:32 -1.61827 116.44286 15433 ft 348 kts 48°
2026-05-08 14:32 -1.60198 116.46071 15172 ft 346 kts 48°
2026-05-08 14:33 -1.58593 116.47829 14924 ft 344 kts 48°
2026-05-08 14:33 -1.56976 116.49601 14683 ft 343 kts 48°
2026-05-08 14:33 -1.55363 116.51366 14414 ft 342 kts 48°
2026-05-08 14:33 -1.53759 116.53123 14153 ft 341 kts 48°
2026-05-08 14:34 -1.52231 116.54941 13860 ft 341 kts 59°
2026-05-08 14:34 -1.51255 116.57070 13443 ft 343 kts 70°
2026-05-08 14:34 -1.50425 116.59325 12981 ft 346 kts 71°
2026-05-08 14:34 -1.49609 116.61585 12522 ft 344 kts 70°
2026-05-08 14:35 -1.48793 116.63822 12148 ft 340 kts 70°
2026-05-08 14:35 -1.47982 116.66013 11747 ft 338 kts 70°
2026-05-08 14:35 -1.47162 116.68205 11342 ft 336 kts 70°
2026-05-08 14:35 -1.46338 116.70394 10929 ft 334 kts 69°
2026-05-08 14:36 -1.45519 116.72563 10509 ft 333 kts 69°
2026-05-08 14:36 -1.44700 116.74727 10094 ft 332 kts 69°
2026-05-08 14:36 -1.43891 116.76864 9896 ft 320 kts 69°
2026-05-08 14:36 -1.43130 116.78874 9866 ft 299 kts 69°
2026-05-08 14:37 -1.42423 116.80749 9725 ft 284 kts 70°
2026-05-08 14:37 -1.41745 116.82587 9306 ft 280 kts 70°
2026-05-08 14:37 -1.41075 116.84419 8802 ft 279 kts 70°
2026-05-08 14:37 -1.40410 116.86240 8344 ft 277 kts 70°
2026-05-08 14:38 -1.39756 116.88030 8028 ft 272 kts 69°
2026-05-08 14:38 -1.39116 116.89778 7785 ft 270 kts 69°
2026-05-08 14:38 -1.38467 116.91547 7558 ft 272 kts 69°
2026-05-08 14:38 -1.37813 116.93333 7334 ft 274 kts 69°
2026-05-08 14:39 -1.37155 116.95126 7098 ft 275 kts 69°
2026-05-08 14:39 -1.36495 116.96929 6836 ft 276 kts 69°
2026-05-08 14:39 -1.35837 116.98731 6579 ft 274 kts 69°
2026-05-08 14:39 -1.35196 117.00486 6327 ft 271 kts 69°
2026-05-08 14:40 -1.34553 117.02249 6061 ft 268 kts 69°
2026-05-08 14:40 -1.33917 117.03989 5800 ft 265 kts 69°
2026-05-08 14:40 -1.33289 117.05710 5555 ft 264 kts 68°
2026-05-08 14:40 -1.32659 117.07433 5306 ft 262 kts 69°
2026-05-08 14:41 -1.32035 117.09139 5059 ft 261 kts 69°
2026-05-08 14:41 -1.31165 117.10705 4788 ft 257 kts 43°
2026-05-08 14:41 -1.29675 117.11620 4584 ft 252 kts 14°
2026-05-08 14:41 -1.27956 117.11739 4353 ft 253 kts 350°
2026-05-08 14:42 -1.26276 117.11223 4130 ft 254 kts 337°
2026-05-08 14:42 -1.24639 117.10515 3887 ft 257 kts 336°
2026-05-08 14:42 -1.23028 117.09802 3657 ft 250 kts 336°
2026-05-08 14:42 -1.21460 117.09114 3401 ft 241 kts 334°
2026-05-08 14:43 -1.20203 117.08090 3147 ft 231 kts 301°
2026-05-08 14:43 -1.19766 117.06608 2934 ft 220 kts 268°
2026-05-08 14:43 -1.20081 117.05162 2768 ft 208 kts 249°
2026-05-08 14:43 -1.20630 117.03870 2588 ft 196 kts 246°
2026-05-08 14:44 -1.21203 117.02692 2475 ft 182 kts 244°
2026-05-08 14:44 -1.21726 117.01545 2268 ft 182 kts 246°
2026-05-08 14:44 -1.22205 117.00423 2048 ft 168 kts 246°
2026-05-08 14:44 -1.22639 116.99393 1859 ft 158 kts 246°
2026-05-08 14:45 -1.23058 116.98396 1650 ft 153 kts 246°
2026-05-08 14:45 -1.23469 116.97419 1451 ft 152 kts 246°
2026-05-08 14:45 -1.23880 116.96442 1247 ft 154 kts 246°
2026-05-08 14:45 -1.24295 116.95458 1051 ft 154 kts 248°
2026-05-08 14:46 -1.24709 116.94473 863 ft 154 kts 247°
2026-05-08 14:46 -1.24971 116.93851 749 ft 153 kts 247°
2026-05-08 14:46 -1.25219 116.93262 646 ft 152 kts 248°
2026-05-08 14:46 -1.25633 116.92279 440 ft 155 kts 248°
2026-05-08 14:47 -1.26053 116.91293 248 ft 153 kts 247°
2026-05-08 14:47 -1.26463 116.90326 33 ft 150 kts 247°
2026-05-08 14:47 -1.26830 116.89461 28 ft 112 kts 247°
2026-05-08 14:47 -1.27048 116.88946 23 ft 51 kts 246°
2026-05-08 14:48 -1.27172 116.88651 25 ft 43 kts 247°
2026-05-08 14:48 -1.27252 116.88462 25 ft 12 kts 257°
2026-05-08 14:48 -1.27228 116.88394 29 ft 10 kts 313°
2026-05-08 14:48 -1.27163 116.88367 27 ft 10 kts
2026-05-08 14:49 -1.27102 116.88396 27 ft 10 kts 51°
2026-05-08 14:49 -1.27072 116.88458 28 ft 10 kts 68°
2026-05-08 14:49 -1.27044 116.88526 26 ft 11 kts 67°
2026-05-08 14:49 -1.27013 116.88599 23 ft 11 kts 67°
2026-05-08 14:50 -1.26983 116.88671 22 ft 11 kts 67°
2026-05-08 14:50 -1.26954 116.88742 23 ft 11 kts 67°
2026-05-08 14:50 -1.26926 116.88810 24 ft 10 kts 66°
2026-05-08 14:50 -1.26897 116.88878 23 ft 11 kts 70°
2026-05-08 14:51 -1.26868 116.88946 25 ft 11 kts 66°
2026-05-08 14:51 -1.26839 116.89014 26 ft 10 kts 66°
2026-05-08 14:51 -1.26810 116.89079 29 ft 10 kts 66°
2026-05-08 14:51 -1.26781 116.89146 27 ft 11 kts 66°
2026-05-08 14:52 -1.26745 116.89228 28 ft 15 kts 66°
2026-05-08 14:52 -1.26643 116.89474 27 ft 20 kts 68°
2026-05-08 14:52 -1.26593 116.89596 27 ft 19 kts 66°
2026-05-08 14:53 -1.26541 116.89714 27 ft 18 kts 65°
2026-05-08 14:53 -1.26491 116.89829 28 ft 18 kts 68°
2026-05-08 14:53 -1.26445 116.89940 27 ft 17 kts 66°
2026-05-08 14:53 -1.26401 116.90041 31 ft 8 kts 58°
2026-05-08 14:54 -1.26357 116.90057 26 ft 7 kts 342°
2026-05-08 14:54 -1.26316 116.90049 26 ft 6 kts 15°
2026-05-08 14:54 -1.26277 116.90053 27 ft 6 kts 347°
2026-05-08 14:54 -1.26252 116.90044 29 ft 2 kts 338°
2026-05-08 14:55 -1.26243 116.90040 28 ft 1 kts 337°
2026-05-08 14:55 -1.26239 116.90039 27 ft 0 kts 336°